[[{"header":{"parameterUnit":"m.s-1","parameterCategory":1,"la1":30.2991,"la2":30.254,"lo1":-89.0895,"lo2":-89.0444,"dy":0.0017,"dx":0.0017,"nx":28,"ny":28,"refTime":"2025-07-11T09:00:00:Z","depth":0,"parameterNumber":2,"parameterNumberName":"U-component_of_WINDS"},"data":[0,0,0,0,0,0,0,0,0,0,0,0,0,0,0,0,0,0,0,0,0,0,0,0,0,0,0,0,0,0,0,0,0,0,0,0,0,0,0,0,0,0,0,0,0,0,0,0,0,0,0,0,0,0,0,0,0,0,0.7527,0.7529,0,0.7691,0.7693,0.7695,0.7765,0.7765,0.7764,0.7764,0.7934,0.7938,0.7943,0,0,0,0,0,0,0,0,0,0,0,0,0,0.7275,0.7279,0.7527,0.7529,0.7531,0.7691,0.7693,0.7695,0.7765,0.7765,0.7764,0.7764,0.7932,0.7938,0.7944,0,0,0,0,0,0,0,0,0,0,0,0,0,0.7406,0.728,0.7527,0.7585,0.7592,0.769,0.7693,0.7696,0.7765,0.7765,0.7764,0.7764,0.793,0.7937,0.7944,0.7997,0,0,0.7966,0.7969,0,0,0,0,0,0,0,0,0.7398,0.7415,0.7574,0.7581,0.7589,0.7707,0.7666,0.7797,0.7765,0.7699,0.7764,0.7764,0.7859,0.7872,0.7904,0.8005,0.8012,0.7967,0.7971,0.7974,0.7976,0,0,0,0,0,0,0,0.7389,0.7409,0.7592,0.7577,0.7586,0.7603,0.7621,0.7691,0.778,0.7705,0.7711,0.7729,0.7863,0.7896,0.7908,0.8015,0.7967,0.7973,0.7978,0.798,0.8166,0.8167,0,0,0,0,0,0,0.737,0.7401,0.7587,0.7597,0.7491,0.7608,0.7628,0.767,0.7779,0.7795,0.7729,0.7732,0.7884,0.79,0.7914,0.7983,0.7974,0.7981,0.7985,0.8166,0.8166,0.8167,0,0,0,0,0,0,0.7365,0.7386,0.758,0.75,0.7526,0.7613,0.7659,0.7673,0.7707,0.7797,0.7813,0.7747,0.7885,0.7904,0.7976,0.7989,0.7984,0.7991,0.8165,0.8166,0.8167,0.8119,0,0,0,0,0,0,0.7357,0.7384,0.7405,0.75,0.753,0.7638,0.7659,0.7677,0.7719,0.7724,0.7818,0.7834,0.7886,0.7964,0.7983,0.7999,0.7996,0.8164,0.8165,0.8166,0.812,0.8119,0.8117,0,0,0,0,0,0.7348,0.7386,0.7406,0.7428,0.7558,0.7639,0.7656,0.7715,0.772,0.7741,0.7799,0.7831,0.7984,0.7971,0.7992,0.8011,0.8163,0.8165,0.8166,0.8121,0.8119,0.8117,0,0,0,0,0,0,0.7291,0.74,0.7423,0.7492,0.7556,0.7651,0.768,0.7711,0.7775,0.7777,0.7847,0.7868,0.7933,0.798,0.7963,0.8067,0.8077,0.8082,0.8035,0.8034,0.8032,0.802,0.8002,0,0,0,0,0,0.7286,0.7343,0.7435,0.7487,0.7518,0.7593,0.763,0.767,0.7739,0.7766,0.7829,0.7895,0.7958,0.7998,0.8062,0.8127,0.8148,0.815,0.8148,0.8147,0.8151,0.8188,0.819,0.8172,0.8172,0.8172,0,0,0.7278,0.7344,0.7376,0.7477,0.7531,0.7588,0.7615,0.7675,0.7717,0.7776,0.7846,0.7894,0.7973,0.804,0.8074,0.8081,0.8161,0.8149,0.8147,0.8152,0.819,0.8191,0.8193,0.8173,0.8173,0.8172,0,0,0.7292,0.7347,0.7397,0.7449,0.753,0.758,0.7591,0.7681,0.7715,0.7787,0.7831,0.7883,0.799,0.8044,0.8085,0.8116,0.8148,0.8135,0.8128,0.8163,0.8164,0.8166,0.8177,0.818,0.8138,0.8138,0.8138,0,0.7271,0.7358,0.7418,0.7475,0.7518,0.7571,0.7622,0.767,0.7767,0.7796,0.7802,0.7937,0.7994,0.8074,0.8081,0.8113,0.8128,0.8125,0.8159,0.8161,0.8164,0.8175,0.8179,0.8136,0.8136,0.8137,0.8137,0,0.7328,0.7388,0.7418,0.7509,0.7556,0.7609,0.7677,0.7717,0.7751,0.78,0.7872,0.7941,0.8018,0.804,0.8075,0.8125,0.8127,0.8145,0.8157,0.8162,0.8174,0.8179,0.8133,0.8134,0.8135,0.8135,0,0,0.7313,0.7435,0.7445,0.7486,0.7578,0.7626,0.768,0.7755,0.7787,0.7852,0.79,0.7988,0.8005,0.8051,0.8093,0.8123,0.8142,0.8138,0.814,0.8136,0.8201,0.8188,0.8192,0.8163,0.8164,0.8165,0.8195,0,0.7338,0.7439,0.7494,0.7571,0.7627,0.7677,0.7725,0.7786,0.7832,0.7886,0.7937,0.7999,0.8016,0.8044,0.8077,0.8133,0.8156,0.8132,0.8208,0.821,0.8188,0.8198,0.8184,0.8209,0.82,0.8201,0.8201,0,0.7383,0.7445,0.7528,0.7612,0.7637,0.7679,0.7751,0.7802,0.7872,0.7903,0.7954,0.7994,0.8054,0.8059,0.8141,0.8123,0.8158,0.8189,0.8192,0.8202,0.8207,0.8208,0.8218,0.8222,0.8209,0.8208,0.8208,0,0.7362,0.7467,0.753,0.7564,0.7664,0.7692,0.7735,0.7804,0.7845,0.7908,0.7935,0.8004,0.8042,0.8095,0.8152,0.8151,0.8229,0.8239,0.8257,0.8256,0.8272,0.8271,0.8288,0.8293,0.8293,0.8293,0.8293,0,0.7386,0.7435,0.7522,0.7561,0.7616,0.7678,0.7732,0.7778,0.7839,0.7888,0.7936,0.798,0.8053,0.8107,0.8152,0.8213,0.823,0.8257,0.8269,0.8253,0.825,0.8278,0.8278,0.8294,0.8294,0.8294,0.8293,0,0.7373,0.7434,0.7506,0.7593,0.7617,0.7653,0.7729,0.7768,0.7816,0.7876,0.7894,0.7969,0.8034,0.8097,0.8184,0.8215,0.8276,0.8291,0.8252,0.8259,0.8273,0.827,0.8309,0.8317,0.8316,0.8316,0.8316,0,0.7385,0.7423,0.7514,0.755,0.7591,0.7648,0.769,0.7752,0.7793,0.7874,0.7903,0.7972,0.803,0.8132,0.8194,0.8261,0.8278,0.8287,0.8289,0.8272,0.8279,0.8276,0.828,0.8286,0.8286,0.8286,0.8285,0,0.7398,0.7426,0.7484,0.7552,0.76,0.7656,0.7715,0.7741,0.7814,0.7858,0.7924,0.7969,0.8057,0.8125,0.8198,0.8243,0.8276,0.8284,0.8292,0.8277,0.8252,0.8266,0.8248,0.8283,0.8283,0.8284,0.8284,0.8284,0.7399,0.7434,0.7504,0.7566,0.7616,0.7669,0.771,0.7762,0.7819,0.7895,0.7928,0.7995,0.8063,0.8165,0.8208,0.8262,0.827,0.8281,0.8284,0.8286,0.8282,0.8243,0.8275,0.8276,0.8276,0.8276,0.8276,0,0.7415,0.7461,0.7518,0.7597,0.7646,0.7672,0.7737,0.7777,0.7835,0.7895,0.795,0.8026,0.8091,0.8158,0.8227,0.8256,0.8273,0.8272,0.8271,0.8281,0.8271,0.8258,0.8257,0.8257,0.8257,0.8257,0.8257,0.8257,0.7429,0.7491,0.7526,0.7613,0.766,0.7725,0.776,0.7809,0.7857,0.7939,0.7993,0.8036,0.8099,0.8172,0.8232,0.825,0.8273,0.8268,0.829,0.828,0.8282,0.8283,0.827,0.8272,0.8272,0.8295,0.8296,0.8296]},{"header":{"parameterUnit":"m.s-1","parameterCategory":1,"la1":30.2991,"la2":30.254,"lo1":-89.0895,"lo2":-89.0444,"dy":0.0017,"dx":0.0017,"nx":28,"ny":28,"refTime":"2025-07-11T09:00:00:Z","depth":0,"parameterNumber":3,"parameterNumberName":"V-component_of_WINDS"},"data":[0,0,0,0,0,0,0,0,0,0,0,0,0,0,0,0,0,0,0,0,0,0,0,0,0,0,0,0,0,0,0,0,0,0,0,0,0,0,0,0,0,0,0,0,0,0,0,0,0,0,0,0,0,0,0,0,0,0,3.7507,3.7507,0,3.7452,3.7451,3.7451,3.7452,3.7453,3.7454,3.7454,3.739,3.7388,3.7385,0,0,0,0,0,0,0,0,0,0,0,0,0,3.7608,3.7606,3.7508,3.7507,3.7506,3.7452,3.7451,3.7451,3.7452,3.7453,3.7454,3.7455,3.7391,3.7388,3.7385,0,0,0,0,0,0,0,0,0,0,0,0,0,3.7559,3.7606,3.7508,3.7501,3.7499,3.7452,3.7451,3.745,3.7452,3.7453,3.7454,3.7455,3.7392,3.7388,3.7385,3.7339,0,0,3.7374,3.7372,0,0,0,0,0,0,0,0,3.7562,3.7556,3.7502,3.7501,3.75,3.746,3.7463,3.7413,3.7451,3.747,3.7454,3.7456,3.7412,3.7407,3.7394,3.7336,3.7333,3.7373,3.7371,3.7369,3.7368,0,0,0,0,0,0,0,3.7566,3.7558,3.7485,3.7501,3.75,3.7498,3.7492,3.7454,3.7435,3.7468,3.7468,3.7462,3.7411,3.7397,3.7392,3.7332,3.7373,3.737,3.7368,3.7366,3.7234,3.7232,0,0,0,0,0,0,3.7571,3.7561,3.7487,3.7484,3.7535,3.7495,3.7489,3.7472,3.7435,3.7431,3.7461,3.7462,3.7403,3.7396,3.739,3.7334,3.737,3.7366,3.7364,3.7235,3.7233,3.7232,0,0,0,0,0,0,3.7574,3.7565,3.7489,3.7522,3.7513,3.7492,3.7473,3.747,3.7456,3.743,3.7426,3.745,3.7403,3.7395,3.7352,3.7331,3.7364,3.7361,3.7237,3.7234,3.7233,3.7221,0,0,0,0,0,0,3.7576,3.7566,3.755,3.7522,3.7511,3.7454,3.7472,3.7468,3.745,3.7451,3.7419,3.7414,3.7404,3.7358,3.7348,3.7327,3.7358,3.7238,3.7236,3.7233,3.7223,3.7219,3.7215,0,0,0,0,0,3.758,3.7547,3.7549,3.754,3.7491,3.7453,3.7447,3.7437,3.7449,3.7431,3.7415,3.7415,3.7335,3.7353,3.7343,3.732,3.7239,3.7236,3.7233,3.7225,3.7219,3.7215,0,0,0,0,0,0,3.7569,3.7543,3.7545,3.7502,3.748,3.7454,3.7431,3.7432,3.7404,3.7406,3.7393,3.7386,3.7343,3.7327,3.7347,3.7273,3.7289,3.7283,3.7285,3.728,3.7276,3.728,3.7355,0,0,0,0,0,3.7563,3.7537,3.7514,3.7479,3.7468,3.7452,3.7435,3.743,3.7406,3.7395,3.7376,3.735,3.7319,3.7299,3.7269,3.7221,3.7213,3.72,3.7196,3.7193,3.7188,3.7161,3.7154,3.7222,3.7222,3.7222,0,0,3.7547,3.753,3.7514,3.7476,3.7459,3.743,3.7444,3.7413,3.7391,3.739,3.7349,3.7334,3.7304,3.7258,3.7237,3.7244,3.7168,3.7189,3.7187,3.7184,3.7157,3.7151,3.7145,3.722,3.722,3.7221,0,0,3.7505,3.749,3.7459,3.7441,3.7416,3.7405,3.7398,3.7371,3.7362,3.7321,3.732,3.7292,3.724,3.7219,3.7201,3.7152,3.7151,3.7142,3.7121,3.7094,3.7089,3.7084,3.7065,3.7059,3.7138,3.7138,3.7138,0,3.7488,3.7448,3.7442,3.7411,3.7394,3.7395,3.7362,3.7345,3.7309,3.7296,3.7305,3.724,3.722,3.7169,3.7157,3.7143,3.7133,3.7145,3.7091,3.7086,3.7081,3.7063,3.7056,3.7137,3.7137,3.7137,3.7137,0,3.7428,3.74,3.7377,3.7346,3.7327,3.7295,3.7282,3.7262,3.7259,3.7247,3.7205,3.7182,3.7147,3.7135,3.713,3.7083,3.7088,3.7094,3.7108,3.7074,3.7057,3.705,3.7135,3.7136,3.7136,3.7136,0,0,3.7376,3.7344,3.7335,3.7321,3.7293,3.727,3.7238,3.7207,3.719,3.7165,3.7137,3.7093,3.7098,3.7078,3.7071,3.7048,3.701,3.7057,3.7056,3.7048,3.6955,3.695,3.6943,3.701,3.7009,3.7008,3.6957,0,3.733,3.7276,3.727,3.722,3.7193,3.7194,3.7166,3.7144,3.7133,3.7106,3.7092,3.7061,3.7071,3.7059,3.7036,3.7019,3.6991,3.7023,3.6981,3.6979,3.6988,3.6934,3.6928,3.6882,3.6951,3.695,3.6949,0,3.7269,3.7246,3.7194,3.7171,3.7159,3.7134,3.7105,3.7081,3.7056,3.7049,3.7027,3.7023,3.6988,3.7006,3.6955,3.6978,3.696,3.6949,3.6947,3.6942,3.6961,3.6926,3.6867,3.686,3.6938,3.6939,3.694,0,3.7235,3.7191,3.7154,3.7142,3.7114,3.7096,3.7083,3.706,3.7042,3.7015,3.7003,3.6972,3.6955,3.693,3.6917,3.6931,3.6868,3.6884,3.6859,3.6859,3.6844,3.6845,3.6781,3.6835,3.6835,3.6835,3.6835,0,3.7183,3.7151,3.7139,3.7116,3.708,3.7073,3.7037,3.7024,3.7003,3.6977,3.6975,3.6949,3.6935,3.6907,3.6896,3.6856,3.6848,3.684,3.6837,3.6839,3.684,3.6827,3.6829,3.6833,3.6834,3.6834,3.6834,0,3.7139,3.7129,3.709,3.7067,3.7061,3.7035,3.7014,3.6991,3.6981,3.6947,3.6938,3.692,3.6887,3.6872,3.683,3.6824,3.6777,3.6777,3.6786,3.6785,3.676,3.6763,3.6684,3.6673,3.6735,3.6735,3.6734,0,3.7106,3.7082,3.7058,3.7041,3.7028,3.7001,3.6984,3.6975,3.6956,3.6927,3.6907,3.6874,3.6848,3.6794,3.6775,3.6743,3.6742,3.6717,3.6737,3.674,3.674,3.6742,3.6739,3.6713,3.6712,3.6712,3.6711,0,3.7049,3.7046,3.7021,3.6995,3.6975,3.6953,3.6932,3.6917,3.6905,3.6884,3.6851,3.6831,3.679,3.6757,3.6724,3.6708,3.6706,3.6705,3.6698,3.6699,3.6705,3.6701,3.6775,3.6707,3.6707,3.6708,3.6708,3.6708,3.7008,3.6987,3.6967,3.694,3.6924,3.6904,3.6882,3.6869,3.6843,3.681,3.6806,3.6771,3.6746,3.6703,3.6685,3.6656,3.6662,3.6651,3.6648,3.6645,3.6644,3.6711,3.665,3.665,3.665,3.6651,3.6651,0,3.695,3.6938,3.6913,3.6885,3.6863,3.6867,3.6844,3.6825,3.6795,3.6773,3.6748,3.671,3.6679,3.6658,3.6626,3.6606,3.6605,3.6598,3.6598,3.6595,3.664,3.665,3.66,3.66,3.66,3.66,3.66,3.66,3.6917,3.6882,3.6876,3.6832,3.6819,3.6787,3.6773,3.6754,3.6737,3.6696,3.6671,3.6659,3.6637,3.6604,3.6574,3.6569,3.6556,3.6549,3.6543,3.6586,3.6591,3.6596,3.6605,3.6546,3.6546,3.65,3.6499,3.6499]}]]